Flag for India Weather past 2 weeks in Kolkata, West Bengal, India

Now
91 °F

Scattered clouds.


Feels Like: 108 °F
Forecast: 79 / 88 °F
Wind: 7 mph from Southeast

Location: Calcutta / Dum Dum

Current Time: Jul 25, 2014 at 5:26:26 PM

Latest Report: Jul 25, 2014 at 4:50 PM


Visibility: 3 mi

Pressure: 29.47 "Hg

Humidity: 67%

Dew point: 79 °F

Location of KolkataLocation

Historic Weather in Kolkata — Graph

°F

Kolkata temperature yesterday

Maximum temperature yesterday: 88 °F (at 9:50 AM)
Minimum temperature yesterday: 81 °F (at 2:20 AM)
Average temperature yesterday: 82 °F

Past Weeks' High & Low Weather Summary

 TemperatureHumidityPressure
High95 °F (Jul 11, 1:50 PM)94% (Jul 11, 1:50 AM)29.62 "Hg (Jul 11, 1:50 AM)
Low79 °F (Jul 22, 2:20 AM)59% (Jul 25, 3:20 PM)29.21 "Hg (Jul 21, 3:20 AM)
Average85 °F87%29.45 "Hg
* Reported Jul 10 4:20 PM — Jul 25 4:20 PM, Kolkata, Weather by CustomWeather, © 2014

Note: Actual official high and low records may vary slightly from our data, if they occured in-between our weather recording intervals... More about our weather records

Advertising

Kolkata weather history for previous 24 hours

 ConditionsComfort  
Time TempWeatherWind HumidityBarometerVisibility
4:20 PM
Jul 25
91 °FScattered clouds.7 mph67%29.47 "Hg2 mi
3:50 PM93 °FScattered clouds.7 mph59%29.47 "Hg2 mi
3:20 PM93 °FScattered clouds.7 mph59%29.50 "Hg2 mi
2:50 PM91 °FScattered clouds.7 mph67%29.50 "Hg2 mi
2:20 PM91 °FScattered clouds.7 mph67%29.50 "Hg2 mi
1:50 PM91 °FScattered clouds.7 mph67%29.50 "Hg2 mi
1:20 PM90 °FScattered clouds.5 mph71%29.53 "Hg2 mi
12:50 PM88 °FBroken clouds.3 mph75%29.56 "Hg2 mi
12:20 PM88 °FBroken clouds.3 mph75%29.56 "Hg2 mi
11:50 AM88 °FBroken clouds.6 mph75%29.59 "Hg2 mi
11:20 AM88 °FBroken clouds.6 mph75%29.59 "Hg2 mi
10:50 AM88 °FBroken clouds.5 mph75%29.62 "Hg2 mi
10:20 AM88 °FBroken clouds.6 mph75%29.59 "Hg2 mi
9:20 AM84 °FBroken clouds.5 mph84%29.59 "Hg2 mi
8:50 AM84 °FBroken clouds.3 mph84%29.59 "Hg1 mi
8:20 AM82 °FFog.3 mph89%29.59 "Hg1 mi
7:50 AM82 °FFog.No wind89%29.59 "Hg1 mi
7:20 AM82 °FFog.No wind89%29.59 "Hg1 mi
6:50 AM81 °FFog.No wind94%29.56 "Hg1 mi
6:20 AM81 °FFog.No wind94%29.56 "Hg1 mi
5:50 AM81 °FFog.No wind94%29.56 "Hg1 mi
5:20 AM81 °FFog.No wind94%29.53 "Hg1 mi
4:50 AM81 °FFog.No wind94%29.53 "Hg1 mi
4:20 AM81 °FFog.No wind94%29.53 "Hg1 mi
3:50 AM81 °FFog.No wind94%29.53 "Hg1 mi
3:20 AM81 °FFog.No wind94%29.53 "Hg1 mi
2:50 AM81 °FFog.No wind94%29.53 "Hg1 mi
2:20 AM81 °FFog.No wind94%29.53 "Hg1 mi
1:50 AM81 °FFog.No wind94%29.53 "Hg1 mi
1:20 AM81 °FFog.No wind94%29.53 "Hg1 mi
12:50 AM81 °FFog.No wind94%29.56 "Hg1 mi
12:20 AM81 °FPartly cloudy.No wind94%29.56 "Hg1 mi
11:50 PM
Jul 24
81 °FPartly cloudy.No wind94%29.56 "Hg1 mi
11:20 PM81 °FPartly cloudy.No wind94%29.56 "Hg1 mi
10:50 PM81 °FPartly cloudy.No wind94%29.56 "Hg1 mi
10:20 PM81 °FPartly cloudy.No wind94%29.59 "Hg1 mi
9:50 PM81 °FPartly cloudy.No wind94%29.59 "Hg1 mi
9:20 PM81 °FPartly cloudy.No wind94%29.59 "Hg1 mi
8:50 PM81 °FPartly cloudy.No wind94%29.56 "Hg1 mi
8:20 PM81 °FPartly cloudy.No wind94%29.56 "Hg1 mi
7:50 PM81 °FPartly cloudy.No wind94%29.56 "Hg2 mi
7:20 PM81 °FPartly cloudy.No wind94%29.53 "Hg2 mi
6:50 PM81 °FLight rain. Broken clouds.3 mph94%29.53 "Hg2 mi
6:20 PM81 °FLight rain. Broken clouds.3 mph94%29.50 "Hg2 mi
5:50 PM81 °FLight rain. Broken clouds.3 mph94%29.50 "Hg2 mi
5:20 PM81 °FBroken clouds.3 mph94%29.50 "Hg2 mi
Weather by CustomWeather, © 2014

See weather overviewHow to use our weather pages